Weather History for KCGS - December, 2013

Change the Weather History Date:

Tuesday, December 10, 2013

  Actual Average Record
Temperature  
Mean Temperature 34 °F -  
Max Temperature 39 °F 49 °F 71 °F (1966)
Min Temperature 28 °F 32 °F 13 °F (1960)
Degree Days  
Heating Degree Days 32    
Moisture  
Dew Point 31 °F    
Average Humidity 86    
Maximum Humidity 100    
Minimum Humidity 51    
Precipitation  
Precipitation 0.00 in - - ()
Sea Level Pressure  
Sea Level Pressure 30.08 in    
Wind  
Wind Speed 1 mph (West)    
Max Wind Speed 13 mph    
Max Gust Speed 20 mph    
Visibility 6 miles    
Events      
Averages and records for this station are not official NWS values.
T = Trace of Precipitation, MM = Missing Value Source: NWS Daily Summary

Daily Weather History Graph

Daily Weather History Graph

Search for Another Location

Airport or City:

Trip Planner

Search our weather history database for the weather conditions in past years. The results will help you decide how hot, cold, wet, or windy it might be!

Date:

Astronomy

Dec. 10, 2013 Rise Set
Actual Time 7:15 AM EST 4:45 PM EST
Civil Twilight 6:45 AM EST 5:15 PM EST
Nautical Twilight 6:12 AM EST 5:48 PM EST
Astronomical Twilight 5:40 AM EST 6:21 PM EST
Moon 12:43 PM EST (12/10) 12:34 AM EST (12/10)
Length of Visible Light 10h 29m
Length of Day
9h 29m
First Quarter, 61% of the Moon is Illuminated
Dec 10
First Quarter
Dec 17
Full
Dec 25
Last Quarter
Jan 1
New
Jan 7
First Quarter

Hourly Weather History & Observations

Time (EST) Temp. Windchill Dew Point Humidity Pressure Visibility Wind Dir Wind Speed Gust Speed Precip Events Conditions
12:00 AM 35.1 °F - 34.2 °F 97% 30.08 in 5.0 mi Calm Calm - N/A   Overcast
12:20 AM 34.9 °F - 34.0 °F 97% 30.08 in 4.0 mi Calm Calm - N/A   Overcast
12:40 AM 34.9 °F - 34.2 °F 97% 30.07 in 5.0 mi Calm Calm - N/A   Overcast
1:00 AM 35.1 °F - 34.3 °F 97% 30.06 in 4.0 mi Calm Calm - N/A   Overcast
1:20 AM 35.1 °F - 34.5 °F 98% 30.06 in 5.0 mi Calm Calm - N/A   Overcast
1:40 AM 35.1 °F - 34.2 °F 97% 30.05 in 5.0 mi Calm Calm - N/A   Overcast
2:00 AM 34.7 °F - 34.0 °F 97% 30.06 in 4.0 mi Calm Calm - N/A   Overcast
2:20 AM 34.3 °F - 33.8 °F 98% 30.04 in 4.0 mi Calm Calm - N/A   Overcast
2:40 AM 34.7 °F - 34.2 °F 98% 30.06 in 4.0 mi Calm Calm - N/A   Overcast
3:00 AM 34.7 °F - 34.2 °F 98% 30.07 in 4.0 mi Calm Calm - N/A   Overcast
3:20 AM 34.7 °F 31.8 °F 34.0 °F 97% 30.08 in 4.0 mi NNW 3.5 mph - N/A   Mostly Cloudy
3:40 AM 34.7 °F - 34.0 °F 97% 30.06 in 4.0 mi Calm Calm - N/A   Scattered Clouds
4:00 AM 34.3 °F - 33.8 °F 98% 30.04 in 3.0 mi Calm Calm - N/A   Clear
4:20 AM 34.2 °F - 33.8 °F 99% 30.01 in 4.0 mi Calm Calm - N/A   Scattered Clouds
4:40 AM 34.7 °F 31.8 °F 34.2 °F 98% 30.03 in 5.0 mi WSW 3.5 mph - N/A   Mostly Cloudy
5:00 AM 34.9 °F - 34.3 °F 98% 30.05 in 5.0 mi Calm Calm - N/A   Overcast
5:20 AM 35.2 °F 32.4 °F 34.7 °F 98% 30.05 in 5.0 mi South 3.5 mph - N/A   Overcast
5:35 AM 35.6 °F - 34.7 °F 97% 30.03 in 5.0 mi Calm Calm - N/A   Overcast
6:00 AM 35.8 °F 31.9 °F 34.9 °F 97% 30.05 in 5.0 mi South 4.6 mph - N/A   Overcast
6:20 AM 36.1 °F - 35.1 °F 96% 30.06 in 5.0 mi Calm Calm - N/A   Overcast
6:40 AM 36.3 °F - 34.9 °F 95% 30.05 in 7.0 mi Calm Calm - N/A   Overcast
7:00 AM 35.1 °F 31.0 °F 33.8 °F 95% 30.05 in 2.5 mi NNW 4.6 mph - N/A   Overcast
7:20 AM 34.7 °F - 33.8 °F 97% 30.04 in 4.0 mi Calm Calm - N/A   Overcast
7:40 AM 34.0 °F - 33.6 °F 99% 30.02 in 1.8 mi Calm Calm - N/A   Overcast
8:00 AM 34.0 °F - 33.6 °F 99% 30.01 in 1.5 mi Calm Calm - N/A   Overcast
8:20 AM 34.0 °F - 33.8 °F 99% 30.04 in 1.0 mi Calm Calm - N/A   Overcast
8:40 AM 33.8 °F - 33.4 °F 99% 30.03 in 0.8 mi Calm Calm - N/A   Overcast
8:55 AM 33.8 °F - 33.8 °F 100% 30.03 in 0.8 mi Calm Calm - N/A   Overcast
9:20 AM 33.8 °F - 33.4 °F 99% 30.02 in 0.8 mi Calm Calm - N/A   Overcast
9:40 AM 33.8 °F - 33.8 °F 100% 30.00 in 0.8 mi Calm Calm - N/A   Overcast
10:00 AM 33.8 °F - 33.4 °F 99% 30.02 in 0.8 mi Calm Calm - N/A   Overcast
10:20 AM 33.8 °F - 33.6 °F 99% 30.03 in 1.0 mi Calm Calm - N/A   Overcast
10:40 AM 33.8 °F - 33.8 °F 100% 30.02 in 0.8 mi Calm Calm - N/A   Overcast
11:00 AM 33.8 °F - 33.4 °F 99% 30.01 in 0.8 mi Calm Calm - N/A   Overcast
11:20 AM 34.2 °F - 34.0 °F 99% 30.01 in 2.5 mi Calm Calm - N/A   Overcast
11:40 AM 34.5 °F - 34.2 °F 99% 30.01 in 2.5 mi Calm Calm - N/A   Overcast
12:00 PM 34.3 °F - 34.0 °F 99% 30.01 in 5.0 mi Calm Calm - N/A   Overcast
12:20 PM 34.9 °F - 34.3 °F 98% 30.01 in 7.0 mi Calm Calm - N/A   Overcast
12:40 PM 35.2 °F - 34.0 °F 95% 30.00 in 10.0 mi Calm Calm - N/A   Overcast
1:00 PM 35.6 °F 32.8 °F 33.3 °F 91% 30.01 in 10.0 mi NW 3.5 mph - N/A   Overcast
1:20 PM 36.0 °F - 33.1 °F 89% 30.01 in 10.0 mi Calm Calm - N/A   Overcast
1:40 PM 36.1 °F 32.3 °F 32.5 °F 87% 30.00 in 10.0 mi West 4.6 mph - N/A   Overcast
2:00 PM 36.7 °F 32.0 °F 32.5 °F 85% 30.01 in 10.0 mi NNW 5.8 mph - N/A   Overcast
2:20 PM 37.9 °F 32.1 °F 32.5 °F 81% 30.02 in 10.0 mi NW 8.1 mph - N/A   Scattered Clouds
2:40 PM 39.0 °F 34.0 °F 32.2 °F 76% 30.02 in 10.0 mi WNW 6.9 mph - N/A   Scattered Clouds
3:00 PM 39.2 °F 33.0 °F 31.5 °F 74% 30.04 in 10.0 mi WNW 9.2 mph 16.1 mph N/A   Scattered Clouds
3:20 PM 39.4 °F 35.2 °F 31.8 °F 74% 30.03 in 10.0 mi West 5.8 mph - N/A   Scattered Clouds
3:40 PM 39.4 °F 33.8 °F 32.0 °F 75% 30.04 in 10.0 mi WNW 8.1 mph - N/A   Scattered Clouds
4:00 PM 39.4 °F 35.2 °F 31.6 °F 74% 30.05 in 10.0 mi West 5.8 mph - N/A   Mostly Cloudy
4:20 PM 39.2 °F 34.2 °F 30.4 °F 71% 30.06 in 10.0 mi West 6.9 mph - N/A   Scattered Clouds
4:40 PM 38.7 °F 30.9 °F 28.0 °F 66% 30.07 in 10.0 mi WNW 12.7 mph 19.6 mph N/A   Clear
5:00 PM 38.1 °F 31.2 °F 26.6 °F 63% 30.09 in 10.0 mi WNW 10.4 mph 16.1 mph N/A   Clear
5:20 PM 37.8 °F 31.3 °F 26.2 °F 63% 30.11 in 10.0 mi West 9.2 mph - N/A   Clear
5:40 PM 37.4 °F 31.4 °F 24.3 °F 59% 30.13 in 10.0 mi West 8.1 mph - N/A   Clear
6:00 PM 37.0 °F 29.8 °F 21.2 °F 53% 30.14 in 10.0 mi West 10.4 mph 17.3 mph N/A   Clear
6:20 PM 36.5 °F 29.7 °F 19.8 °F 51% 30.14 in 10.0 mi WNW 9.2 mph - N/A   Clear
6:40 PM 36.0 °F 31.1 °F 19.8 °F 52% 30.15 in 10.0 mi West 5.8 mph - N/A   Clear
7:00 PM 35.6 °F 32.8 °F 20.5 °F 54% 30.15 in 10.0 mi WSW 3.5 mph - N/A   Clear
7:20 PM 34.9 °F - 21.7 °F 59% 30.15 in 10.0 mi Calm Calm - N/A   Clear
7:40 PM 34.2 °F - 22.3 °F 62% 30.15 in 10.0 mi Calm Calm - N/A   Clear
8:00 PM 33.8 °F - 22.6 °F 64% 30.16 in 10.0 mi Calm Calm - N/A   Clear
8:20 PM 33.3 °F - 23.0 °F 66% 30.17 in 10.0 mi Calm Calm - N/A   Clear
8:40 PM 32.5 °F - 23.2 °F 68% 30.17 in 10.0 mi Calm Calm - N/A   Clear
9:00 PM 29.5 °F - 26.6 °F 89% 30.18 in 10.0 mi Calm Calm - N/A   Clear
9:20 PM 30.7 °F - 26.1 °F 83% 30.18 in 10.0 mi Calm Calm - N/A   Clear
9:40 PM 32.0 °F 28.7 °F 23.9 °F 72% 30.18 in 10.0 mi WSW 3.5 mph - N/A   Clear
10:00 PM 32.4 °F - 22.5 °F 67% 30.20 in 10.0 mi Calm Calm - N/A   Clear
10:20 PM 30.4 °F - 24.4 °F 79% 30.21 in 10.0 mi Calm Calm - N/A   Clear
10:40 PM 28.9 °F - 25.5 °F 87% 30.21 in 10.0 mi Calm Calm - N/A   Clear
11:00 PM 28.4 °F - 24.3 °F 84% 30.22 in 10.0 mi Calm Calm - N/A   Clear
11:20 PM 29.3 °F 25.6 °F 23.9 °F 80% 30.22 in 10.0 mi West 3.5 mph - N/A   Clear
11:40 PM 32.2 °F - 21.2 °F 64% 30.23 in 10.0 mi Calm Calm - N/A   Clear